| time (UTC) | temp F | wind direction | speed MPH | gust MPH | rain 1hr in | rain 24hr in | rain mn in | humidity % | barometer mb |
| 20260502194511 | 50 | 237 | 7.0 | 11.0 | 0.00 | 0.13 | 0.01 | 43 | 1018.2 |
| 20260502193010 | 50 | 322 | 3.0 | 12.0 | 0.00 | 0.13 | 0.01 | 42 | 1018.4 |
| 20260502191518 | 49 | 302 | 3.0 | 10.0 | 0.00 | 0.13 | 0.01 | 41 | 1018.5 |
| 20260502190010 | 49 | 243 | 4.0 | 9.0 | 0.00 | 0.13 | 0.01 | 41 | 1018.5 |
| 20260502184513 | 49 | 294 | 6.0 | 10.0 | 0.00 | 0.13 | 0.01 | 40 | 1018.6 |
| 20260502183009 | 49 | 17 | 5.0 | 11.0 | 0.00 | 0.13 | 0.01 | 42 | 1018.7 |
| 20260502181508 | 49 | 300 | 6.0 | 12.0 | 0.00 | 0.13 | 0.01 | 42 | 1018.7 |
| 20260502163006 | 49 | 276 | 4.0 | 13.0 | 0.00 | 0.13 | 0.01 | 41 | 1018.6 |
| 20260502161503 | 49 | 287 | 6.0 | 12.0 | 0.00 | 0.13 | 0.01 | 40 | 1018.8 |
| 20260502151557 | 47 | 314 | 2.0 | 13.0 | 0.00 | 0.13 | 0.01 | 45 | 1018.9 |
| 20260502150108 | 47 | 332 | 5.0 | 12.0 | 0.00 | 0.13 | 0.01 | 46 | 1018.9 |
| 20260502123045 | 42 | 306 | 7.0 | 11.0 | 0.00 | 0.13 | 0.01 | 77 | 1019.4 |
| 20260502121537 | 42 | 314 | 4.0 | 10.0 | 0.00 | 0.13 | 0.01 | 79 | 1019.2 |
| 20260502114535 | 42 | 350 | 3.0 | 6.0 | 0.00 | 0.13 | 0.01 | 84 | 1019.2 |
| 20260502113037 | 42 | 284 | 4.0 | 11.0 | 0.00 | 0.13 | 0.01 | 85 | 1019.5 |
| 20260502111541 | 42 | 344 | 2.0 | 5.0 | 0.00 | 0.13 | 0.01 | 86 | 1019.2 |
| 20260502110029 | 42 | 295 | 0.0 | 3.0 | 0.00 | 0.13 | 0.01 | 87 | 1018.9 |
| 20260502104527 | 41 | 294 | 0.0 | 2.0 | 0.00 | 0.13 | 0.01 | 86 | 1018.9 |
| 20260502103026 | 41 | 294 | 0.0 | 2.0 | 0.00 | 0.13 | 0.01 | 86 | 1018.9 |
| 20260502101526 | 41 | 294 | 1.0 | 2.0 | 0.00 | 0.13 | 0.01 | 86 | 1018.8 |
| 20260502091523 | 42 | 294 | 0.0 | 4.0 | 0.00 | 0.13 | 0.01 | 85 | 1018.3 |
| 20260502071514 | 42 | 222 | 1.0 | 6.0 | 0.00 | 0.13 | 0.01 | 84 | 1017.9 |
| 20260502070015 | 42 | 316 | 3.0 | 5.0 | 0.00 | 0.13 | 0.01 | 84 | 1017.9 |
| 20260502064517 | 42 | 284 | 2.0 | 4.0 | 0.00 | 0.13 | 0.01 | 84 | 1017.8 |
| 20260502063014 | 43 | 311 | 1.0 | 5.0 | 0.00 | 0.13 | 0.01 | 85 | 1017.6 |
| 20260502061509 | 43 | 313 | 1.0 | 9.0 | 0.00 | 0.13 | 0.01 | 86 | 1017.7 |
| 20260502060008 | 43 | 311 | 3.0 | 6.0 | 0.00 | 0.13 | 0.01 | 86 | 1017.7 |
| 20260502054506 | 43 | 296 | 6.0 | 11.0 | 0.00 | 0.13 | 0.01 | 87 | 1017.8 |
| 20260502053004 | 44 | 336 | 0.0 | 6.0 | 0.00 | 0.13 | 0.01 | 87 | 1017.7 |
| 20260502051502 | 44 | 326 | 2.0 | 6.0 | 0.01 | 0.13 | 0.01 | 87 | 1017.4 |
| 20260502050001 | 45 | 291 | 3.0 | 6.0 | 0.01 | 0.13 | 0.01 | 87 | 1017.5 |
| 20260502044610 | 45 | 277 | 2.0 | 7.0 | 0.01 | 0.13 | 0.01 | 87 | 1017.7 |
| 20260502043101 | 44 | 229 | 3.0 | 6.0 | 0.01 | 0.13 | 0.01 | 87 | 1017.6 |
| 20260502041558 | 45 | 250 | 3.0 | 8.0 | 0.00 | 0.12 | 0.00 | 88 | 1017.5 |
| 20260502040058 | 45 | 246 | 2.0 | 5.0 | 0.01 | 0.12 | 0.00 | 88 | 1017.3 |
| 20260502034555 | 45 | 255 | 2.0 | 5.0 | 0.01 | 0.12 | 0.12 | 88 | 1017.3 |
| 20260502033051 | 45 | 324 | 3.0 | 7.0 | 0.01 | 0.12 | 0.12 | 88 | 1017.1 |
| 20260502031551 | 46 | 290 | 4.0 | 8.0 | 0.00 | 0.11 | 0.11 | 88 | 1017.3 |
| 20260502030052 | 46 | 234 | 2.0 | 4.0 | 0.01 | 0.11 | 0.11 | 88 | 1017.4 |
| 20260502024552 | 46 | 233 | 2.0 | 4.0 | 0.02 | 0.11 | 0.11 | 88 | 1017.3 |
| 20260502023049 | 46 | 223 | 1.0 | 4.0 | 0.03 | 0.11 | 0.11 | 87 | 1017.3 |
| 20260502021549 | 46 | 223 | 1.0 | 3.0 | 0.04 | 0.11 | 0.11 | 87 | 1017.5 |
| 20260502020049 | 46 | 218 | 2.0 | 4.0 | 0.04 | 0.10 | 0.10 | 86 | 1017.4 |
| 20260502014648 | 47 | 218 | 0.0 | 2.0 | 0.03 | 0.09 | 0.09 | 85 | 1017.2 |
| 20260502013047 | 47 | 218 | 0.0 | 1.0 | 0.02 | 0.07 | 0.07 | 85 | 1017.1 |
| 20260502011547 | 47 | 218 | 0.0 | 1.0 | 0.02 | 0.07 | 0.07 | 85 | 1017.2 |
| 20260502010050 | 47 | 218 | 0.0 | 2.0 | 0.02 | 0.06 | 0.06 | 84 | 1017.2 |
| 20260502004547 | 47 | 218 | 1.0 | 3.0 | 0.03 | 0.06 | 0.06 | 84 | 1017.1 |
| 20260502003045 | 47 | 218 | 1.0 | 4.0 | 0.03 | 0.05 | 0.05 | 84 | 1017.1 |
| 20260502001545 | 47 | 218 | 1.0 | 4.0 | 0.04 | 0.05 | 0.05 | 83 | 1017.0 |
| 20260502000050 | 47 | 217 | 2.0 | 5.0 | 0.04 | 0.04 | 0.04 | 82 | 1017.0 |
| 20260501234544 | 47 | 242 | 2.0 | 4.0 | 0.03 | 0.03 | 0.03 | 81 | 1016.8 |
| 20260501233044 | 48 | 294 | 3.0 | 4.0 | 0.02 | 0.02 | 0.02 | 78 | 1016.8 |
| 20260501231557 | 49 | 267 | 3.0 | 9.0 | 0.01 | 0.01 | 0.01 | 75 | 1016.8 |
| 20260501230050 | 50 | 290 | 6.0 | 12.0 | 0.00 | 0.00 | 0.00 | 71 | 1016.8 |
| 20260501224548 | 51 | 291 | 8.0 | 12.0 | 0.00 | 0.00 | 0.00 | 65 | 1016.6 |
| 20260501223048 | 52 | 288 | 7.0 | 10.0 | 0.00 | 0.00 | 0.00 | 59 | 1016.4 |
| 20260501221559 | 52 | 298 | 4.0 | 7.0 | 0.00 | 0.00 | 0.00 | 58 | 1016.3 |
| 20260501220044 | 53 | 309 | 4.0 | 10.0 | 0.00 | 0.00 | 0.00 | 55 | 1016.3 |
| 20260501214541 | 53 | 278 | 6.0 | 12.0 | 0.00 | 0.00 | 0.00 | 53 | 1016.4 |
| 20260501213039 | 53 | 248 | 4.0 | 13.0 | 0.00 | 0.00 | 0.00 | 53 | 1016.3 |
| 20260501211554 | 54 | 290 | 4.0 | 8.0 | 0.00 | 0.00 | 0.00 | 51 | 1016.2 |
| 20260501210039 | 53 | 268 | 4.0 | 7.0 | 0.00 | 0.00 | 0.00 | 52 | 1016.5 |
| 20260501204539 | 53 | 307 | 2.0 | 8.0 | 0.00 | 0.00 | 0.00 | 52 | 1016.4 |
| 20260501203038 | 53 | 348 | 2.0 | 6.0 | 0.00 | 0.00 | 0.00 | 52 | 1016.4 |
| 20260501201637 | 52 | 330 | 1.0 | 5.0 | 0.00 | 0.00 | 0.00 | 52 | 1016.1 |
| 20260501200036 | 52 | 297 | 3.0 | 7.0 | 0.00 | 0.00 | 0.00 | 51 | 1016.4 |